sat.trackr.live / text

‹ back to catalog

FENGYUN 3F

NORAD 57490 · 2023-111A

PAYLOAD ACTIVE UNKNOWN

§ Identity

Operator
Country
PRC
Launch date
2023-08-03
Launch site
JSC
Launch vehicle
Mass (kg)
RCS (m²)

Purposes: earth_obs

External: N2YO · Heavens-Above · Gunter

§ Orbital elements

Epoch: 2026-09-19T23:03:48.837024Z

Period
101.41 min
Inclination
98.6752°
Eccentricity
0.0001272
Mean motion
14.19951675 rev/d
Perigee alt
824.6 km
Apogee alt
826.4 km
Semi-major
7,203.7 km
B*
2.0817e-5
RAAN
331.1628°
Arg perigee
113.1768°
Mean anomaly
246.9543°
Rev number
16,231

§ Raw data

FENGYUN 3F1 57490U 23111A   26262.96098191  .00000001  00000+0  20817-4 0  99962 57490  98.6752 331.1628 0001272 113.1768 246.9543 14.19951675162311

JSON: /api/v1/satellites/57490 · /tle

For live sub-satellite position, see the globe view (requires WebGL).

§ Visibility from observer

Set your observer location to see the next 7 days of passes ≥ 10°. The values pass through the URL so the page stays shareable.

No JS? Fill the form by hand. The geolocation button needs JavaScript.

§ Radio — SatNOGS DB

ModeDescriptionDownlinkUplink
AHRPT AHRPT 7.790 GHz
FM Mode S - TLM 2.246 GHz
FM Mode X - DPT dumps (active over China & Sweden) 8.213 GHz
BPSK S-band telemetry 2.265 GHz

4 transmitters · refreshed weekly from db.satnogs.org